Погода в Байкале

Россия / Новосибирская область     55°38′17″N   83°53′14″E
темп.,
°C
ветер,
м/с
пор.,
м/с
влажн.,
%
обл.,
%
осадки,
мм/ч
давл.,
гПа
погр.,
м
25 февраля, чт
чт2501:00−13юв2796100 4.1 1009266
04:00−18юз6158167 0.1 1011603
07:00−23юз4129133 0.1 1014336
10:00−22юз5138864 0.0 1016700
13:00−19юз6117855 0.0 10171212
16:00−19юз71286100 0.1 10171524
19:00−20юз51390100 0.2 10191452
22:00−21юз31196100 0.1 1019893
26 февраля, пт
пт2601:00−22юз31097100 0.1 1020624
04:00−22юз51094100 0.1 10201024
07:00−22юз51192100 0.2 1022957
10:00−23юз71292100 0.1 1024891
13:00−24зюз71192100 0.3 1027906
16:00−23зюз71088100 0.1 1029972
19:00−25зюз41192100 0.1 1032668
22:00−26зюз41194100 0.0 1033576
27 февраля, сб
сб2701:00−26зюз41094100 0.0 1034550
04:00−26юз4995100 0.0 1035462
07:00−26юз4995100 0.1 1035473
10:00−26юз4995100 0.1 1036504
13:00−24юз4793100 0.2 1036589
16:00−22юз4792100 0.1 1036610
19:00−25юз3596100 0.1 1037109
22:00−28юз339859 0.0 103851
28 февраля, вс
вс2801:00−30юз239935 0.0 103930
04:00−31ююз239849 0.0 103925
07:00−31ююз239724 0.0 104022
10:00−28ю25940 0.0 1040139
13:00−21ююв24900 0.0 1038334
16:00−18юв358975 0.0 1036421
19:00−20вюв389478 0.0 1034158
22:00−17юв4993100 0.0 1032228
1 марта, пн
пн101:00−14юв51193100 0.1 1028372
04:00−11юв51194100 0.4 1024549
07:00−8ююв51194100 1.3 1020747
10:00−7ю61194100 0.9 1016726
13:00−5ю61094100 2.2 1013743
16:00−2ююз71395100 1.9 1011879
19:000юз71397100 2.5 1010825
22:000зюз71392100 0.5 1011833